Weather History for Wahpeton, ND

Change the Weather History Date:

Sunday, March 30, 2014

  Actual Average (KFFM) Record (KFFM)
Temperature  
Mean Temperature 42 °F -  
Max Temperature 55 °F 44 °F 78 °F (1967)
Min Temperature 30 °F 25 °F -13 °F (1969)
Degree Days  
Heating Degree Days 22    
Moisture  
Dew Point 32 °F    
Average Humidity 73    
Maximum Humidity 93    
Minimum Humidity 44    
Precipitation  
Precipitation 0.00 in - - ()
Sea Level Pressure  
Sea Level Pressure 29.79 in    
Wind  
Wind Speed 10 mph (ENE)    
Max Wind Speed 20 mph    
Max Gust Speed 25 mph    
Visibility 10 miles    
Events      
Averages and records for this station are not official NWS values.
T = Trace of Precipitation, MM = Missing Value Source: NWS Daily Summary

Daily Weather History Graph

Daily Weather History Graph

Search for Another Location

Airport:

Trip Planner

Search our weather history database for the weather conditions in past years. The results will help you decide how hot, cold, wet, or windy it might be!

Date:

Astronomy

Mar. 30, 2014 Rise Set
Actual Time 7:09 AM CDT 7:52 PM CDT
Civil Twilight 6:39 AM CDT 8:22 PM CDT
Nautical Twilight 6:03 AM CDT 8:58 PM CDT
Astronomical Twilight 5:26 AM CDT 9:36 PM CDT
Moon 6:56 AM CDT (3/30) 8:08 PM CDT (3/30)
Length of Visible Light 13h 43m
Length of Day
12h 42m
Waning Crescent, 0% of the Moon is Illuminated
Mar 30
Waning Crescent
Mar 30
New
Apr 7
First Quarter
Apr 15
Full
Apr 22
Last Quarter

Hourly Weather History & Observations

Time (CDT) Temp. Windchill Dew Point Humidity Pressure Visibility Wind Dir Wind Speed Gust Speed Precip Events Conditions
12:15 AM 35.6 °F 25.9 °F 32.0 °F 87% 29.79 in 10.0 mi SSE 16.1 mph 21.9 mph N/A   Clear
12:35 AM 35.6 °F 25.9 °F 32.0 °F 87% 29.78 in 10.0 mi SSE 16.1 mph 23.0 mph N/A   Clear
12:55 AM 35.6 °F 26.6 °F 30.2 °F 81% 29.78 in 10.0 mi SSE 13.8 mph 19.6 mph N/A   Clear
1:15 AM 35.6 °F 27.1 °F 30.2 °F 81% 29.79 in 10.0 mi SE 12.7 mph - N/A   Clear
1:35 AM 33.8 °F 25.3 °F 30.2 °F 87% 29.78 in 10.0 mi SE 11.5 mph - N/A   Clear
1:55 AM 33.8 °F 24.8 °F 30.2 °F 87% 29.77 in 10.0 mi SE 12.7 mph - N/A   Clear
2:15 AM 33.8 °F 24.3 °F 30.2 °F 87% 29.76 in 10.0 mi SE 13.8 mph - N/A   Clear
2:35 AM 33.8 °F 24.3 °F 30.2 °F 87% 29.75 in 10.0 mi SE 13.8 mph - N/A   Clear
2:55 AM 33.8 °F 24.8 °F 30.2 °F 87% 29.74 in 10.0 mi SE 12.7 mph - N/A   Clear
3:15 AM 33.8 °F 24.3 °F 30.2 °F 87% 29.74 in 10.0 mi SE 13.8 mph - N/A   Clear
3:35 AM 33.8 °F 25.8 °F 30.2 °F 87% 29.76 in 10.0 mi SE 10.4 mph - N/A   Clear
3:55 AM 33.8 °F 27.0 °F 30.2 °F 87% 29.76 in 10.0 mi SE 8.1 mph - N/A   Clear
4:15 AM 32.0 °F 24.8 °F 30.2 °F 93% 29.76 in 10.0 mi SSE 8.1 mph - N/A   Clear
4:35 AM 32.0 °F 25.6 °F 30.2 °F 93% 29.76 in 10.0 mi SE 6.9 mph - N/A   Clear
4:55 AM 32.0 °F 25.6 °F 28.4 °F 87% 29.76 in 10.0 mi SE 6.9 mph - N/A   Clear
5:15 AM 32.0 °F 26.4 °F 30.2 °F 93% 29.76 in 10.0 mi SE 5.8 mph - N/A   Clear
5:35 AM 32.0 °F 26.4 °F 28.4 °F 87% 29.76 in 10.0 mi SE 5.8 mph - N/A   Clear
5:55 AM 32.0 °F 24.2 °F 28.4 °F 87% 29.75 in 10.0 mi SE 9.2 mph - N/A   Clear
6:15 AM 32.0 °F 24.8 °F 28.4 °F 87% 29.75 in 10.0 mi SE 8.1 mph - N/A   Clear
6:35 AM 32.0 °F 25.6 °F 28.4 °F 87% 29.75 in 10.0 mi SSE 6.9 mph - N/A   Clear
6:55 AM 30.2 °F 22.6 °F 28.4 °F 93% 29.75 in 7.0 mi SSE 8.1 mph - N/A   Clear
7:15 AM 32.0 °F 24.2 °F 28.4 °F 87% 29.76 in 7.0 mi SSE 9.2 mph - N/A   Clear
7:35 AM 32.0 °F - 30.2 °F 93% 29.79 in 7.0 mi Calm Calm - N/A   Clear
7:55 AM 32.0 °F 26.4 °F 30.2 °F 93% 29.79 in 7.0 mi South 5.8 mph - N/A   Clear
8:15 AM 32.0 °F 28.7 °F 30.2 °F 93% 29.79 in 7.0 mi South 3.5 mph - N/A   Clear
8:35 AM 33.8 °F - 30.2 °F 87% 29.80 in 10.0 mi Calm Calm - N/A   Clear
8:55 AM 33.8 °F 29.6 °F 32.0 °F 93% 29.80 in 7.0 mi South 4.6 mph - N/A   Clear
9:15 AM 35.6 °F - 32.0 °F 87% 29.79 in 10.0 mi Calm Calm - N/A   Clear
9:35 AM 37.4 °F - 32.0 °F 81% 29.80 in 10.0 mi Calm Calm - N/A   Clear
9:55 AM 41.0 °F - 32.0 °F 70% 29.80 in 10.0 mi Calm Calm - N/A   Clear
10:15 AM 41.0 °F - 32.0 °F 70% 29.80 in 10.0 mi Calm Calm - N/A   Clear
10:35 AM 42.8 °F - 32.0 °F 66% 29.80 in 10.0 mi Calm Calm - N/A   Clear
10:55 AM 44.6 °F - 32.0 °F 61% 29.81 in 10.0 mi Calm Calm - N/A   Clear
11:15 AM 44.6 °F - 32.0 °F 61% 29.81 in 10.0 mi Calm Calm - N/A   Clear
11:35 AM 46.4 °F 45.2 °F 32.0 °F 57% 29.81 in 10.0 mi North 3.5 mph - N/A   Clear
11:55 AM 48.2 °F - 32.0 °F 54% 29.82 in 10.0 mi NNW 6.9 mph - N/A   Clear
12:15 PM 50.0 °F - 32.0 °F 50% 29.82 in 10.0 mi NW 4.6 mph - N/A   Clear
12:35 PM 50.0 °F - 32.0 °F 50% 29.82 in 10.0 mi NNE 4.6 mph - N/A   Clear
12:55 PM 50.0 °F - 33.8 °F 54% 29.82 in 10.0 mi North 6.9 mph - N/A   Clear
1:15 PM 50.0 °F - 32.0 °F 50% 29.81 in 10.0 mi NE 9.2 mph - N/A   Clear
1:35 PM 50.0 °F - 32.0 °F 50% 29.81 in 10.0 mi NNE 9.2 mph - N/A   Clear
1:55 PM 51.8 °F - 32.0 °F 47% 29.81 in 10.0 mi NE 9.2 mph - N/A   Clear
2:15 PM 51.8 °F - 33.8 °F 50% 29.80 in 10.0 mi NE 10.4 mph - N/A   Clear
2:35 PM 51.8 °F - 33.8 °F 50% 29.80 in 10.0 mi NNE 11.5 mph - N/A   Clear
2:55 PM 53.6 °F - 33.8 °F 47% 29.80 in 10.0 mi NE 5.8 mph - N/A   Clear
3:15 PM 53.6 °F - 33.8 °F 47% 29.79 in 10.0 mi NE 11.5 mph - N/A   Clear
3:35 PM 55.4 °F - 33.8 °F 44% 29.79 in 10.0 mi ENE 10.4 mph - N/A   Clear
3:55 PM 55.4 °F - 33.8 °F 44% 29.78 in 10.0 mi NE 11.5 mph - N/A   Clear
4:15 PM 55.4 °F - 33.8 °F 44% 29.78 in 10.0 mi ENE 10.4 mph - N/A   Clear
4:35 PM 55.4 °F - 33.8 °F 44% 29.78 in 10.0 mi NE 8.1 mph - N/A   Clear
4:55 PM 55.4 °F - 33.8 °F 44% 29.78 in 10.0 mi ENE 10.4 mph - N/A   Clear
5:15 PM 53.6 °F - 33.8 °F 47% 29.78 in 10.0 mi East 9.2 mph - N/A   Clear
5:35 PM 53.6 °F - 33.8 °F 47% 29.78 in 10.0 mi ENE 10.4 mph - N/A   Clear
5:55 PM 51.8 °F - 33.8 °F 50% 29.78 in 10.0 mi NE 9.2 mph - N/A   Clear
6:15 PM 51.8 °F - 33.8 °F 50% 29.79 in 10.0 mi NE 8.1 mph - N/A   Clear
6:35 PM 51.8 °F - 33.8 °F 50% 29.79 in 10.0 mi NE 9.2 mph - N/A   Clear
6:55 PM 46.4 °F 40.7 °F 35.6 °F 66% 29.79 in 10.0 mi North 12.7 mph - N/A   Clear
7:15 PM 44.6 °F 36.6 °F 35.6 °F 71% 29.79 in 10.0 mi NNE 19.6 mph 25.3 mph N/A   Clear
7:35 PM 42.8 °F 34.5 °F 33.8 °F 70% 29.79 in 10.0 mi NNE 18.4 mph - N/A   Clear
7:55 PM 41.0 °F 33.1 °F 33.8 °F 76% 29.80 in 10.0 mi NNE 15.0 mph - N/A   Clear
8:15 PM 41.0 °F 33.1 °F 33.8 °F 76% 29.81 in 10.0 mi North 15.0 mph - N/A   Clear
8:35 PM 39.2 °F 32.0 °F 33.8 °F 81% 29.82 in 10.0 mi North 11.5 mph - N/A   Clear
8:55 PM 37.4 °F 28.5 °F 32.0 °F 81% 29.81 in 10.0 mi NNE 15.0 mph - N/A   Scattered Clouds
9:15 PM 37.4 °F 27.8 °F 32.0 °F 81% 29.78 in 10.0 mi NNE 17.3 mph - N/A   Mostly Cloudy
9:35 PM 37.4 °F 28.5 °F 32.0 °F 81% 29.79 in 10.0 mi NNE 15.0 mph - N/A   Scattered Clouds
9:55 PM 37.4 °F 30.8 °F 32.0 °F 81% 29.81 in 10.0 mi North 9.2 mph - N/A   Clear
10:15 PM 37.4 °F 29.8 °F 32.0 °F 81% 29.80 in 10.0 mi North 11.5 mph - N/A   Clear
10:35 PM 35.6 °F 26.6 °F 32.0 °F 87% 29.80 in 10.0 mi North 13.8 mph - N/A   Clear
10:55 PM 35.6 °F 27.1 °F 32.0 °F 87% 29.77 in 10.0 mi North 12.7 mph 18.4 mph N/A   Scattered Clouds
11:15 PM 33.8 °F 25.3 °F 32.0 °F 93% 29.77 in 10.0 mi North 11.5 mph - N/A   Scattered Clouds
11:35 PM 33.8 °F 25.3 °F 32.0 °F 93% 29.78 in 10.0 mi North 11.5 mph - N/A   Scattered Clouds
11:55 PM 33.8 °F 24.8 °F 32.0 °F 93% 29.77 in 10.0 mi North 12.7 mph - N/A   Overcast